Regional Weather Roundup
Issued by NWS Portland, ME

Current Version | Previous Version | Text Only | Print | Product List | Glossary Off
Versions: 1 2 3 4 5 6 7 8 9 10 11 12 13 14 15 16 17 18 19 20 21 22 23 24 25 26 27 28 29 30 31 32 33 34 35 36 37 38 39 40 41 42 43 44 45 46 47 48 49 50
713 ASUS41 KGYX 251810 RWRGYX WEATHER ROUNDUP FOR MAINE AND NEW HAMPSHIRE NATIONAL WEATHER SERVICE GRAY ME 200 PM EDT SUN JUN 25 2017 MEZ002-005-006-010-012-015-018-020-021-024-026-027-029-251900- MAINE CITY SKY/WX TMP DP RH WIND PRES REMARKS PORTLAND MOSUNNY 81 50 33 W16G24 29.88S 6HR MIN TEMP: 70; 6HR MAX TEMP: 81; SANFORD PTSUNNY 80 53 39 SW13 29.89F BAR HARBOR SUNNY 76 58 53 S18 29.85F WISCASSET PTSUNNY 78 53 41 SW9 29.88F 6HR MIN TEMP: 70; 6HR MAX TEMP: 79; ROCKLAND SUNNY 73 57 57 S12G20 29.87S FRYEBURG MOSUNNY 78 51 38 SW9G20 29.87F 6HR MIN TEMP: 68; 6HR MAX TEMP: 80; LEWISTONAUBURN MOSUNNY 77 54 44 SW6 29.87F AUGUSTA MOSUNNY 76 52 43 VRB5 29.87F 6HR MIN TEMP: 68; 6HR MAX TEMP: 77; WATERVILLE MOSUNNY 77 54 44 W9 29.84F BANGOR PTSUNNY 77 54 44 SW9 29.84F 6HR MIN TEMP: 67; 6HR MAX TEMP: 77; GREENVILLE N/A 72 50 45 VRB6 29.85F 6HR MIN TEMP: 62; 6HR MAX TEMP: 72; MILLINOCKET PTSUNNY 74 49 41 NW9 29.84F 6HR MIN TEMP: 64; 6HR MAX TEMP: 75; HOULTON MOSUNNY 76 51 41 SW9 29.80S 6HR MIN TEMP: 64; 6HR MAX TEMP: 76; PRESQUE ISLE PTSUNNY 74 47 38 W8 29.79F 6HR MIN TEMP: 63; 6HR MAX TEMP: 75; FRENCHVILLE PTSUNNY 69 47 45 W10 29.78F 6HR MIN TEMP: 60; 6HR MAX TEMP: 73; CARIBOU PTSUNNY 75 47 36 W9 29.77F 6HR MIN TEMP: 63; 6HR MAX TEMP: 76; $$ NHZ002-005-008-009-011-012-014-251900- NEW HAMPSHIRE CITY SKY/WX TMP DP RH WIND PRES REMARKS PORTSMOUTH MOSUNNY 82 51 33 W10 29.88F ROCHESTER MOSUNNY 81 49 32 W8 29.89F 6HR MIN TEMP: 68; 6HR MAX TEMP: 82; NASHUA PTSUNNY 80 54 40 W7 29.90F MANCHESTER PTSUNNY 81 51 35 VRB5 29.88F 6HR MIN TEMP: 69; 6HR MAX TEMP: 82; CONCORD MOSUNNY 80 49 33 SW9G18 29.89F 6HR MIN TEMP: 68; 6HR MAX TEMP: 82; LACONIA PTSUNNY N/A N/A N/A SW7 29.90F PLYMOUTH PTSUNNY 77 49 36 W5 29.88F BERLIN PTSUNNY 74 50 42 VRB5 29.89F 6HR MIN TEMP: 64; 6HR MAX TEMP: 76; WHITEFIELD PTSUNNY 74 51 44 W7 29.88F 6HR MIN TEMP: 64; 6HR MAX TEMP: 74; JAFFREY MOSUNNY 78 53 41 SW12G18 29.93F 6HR MIN TEMP: 65; 6HR MAX TEMP: 79; KEENE MOSUNNY 78 52 40 W8G16 29.91F LEBANON MOSUNNY 79 52 38 W9 29.88F 6HR MIN TEMP: 66; 6HR MAX TEMP: 79; MT WASHINGTON PTSUNNY 48 43 81 W31 N/A 6HR MIN TEMP: 40; 6HR MAX TEMP: 48; $$ VTZ005-007-008-251900- VERMONT CITY SKY/WX TMP DP RH WIND PRES REMARKS ST JOHNSBURY N/A 74 50 42 MISG 29.85F MONTPELIER CLOUDY 70 54 56 W5 29.92F BURLINGTON PTSUNNY 75 53 46 SW3 29.85F THUNDER $$ MAZ007-012-024-CTZ003-RIZ002-NYZ038-NYZ072-251900- SOUTHERN NEW ENGLAND AND NY CITY SKY/WX TMP DP RH WIND PRES REMARKS BOSTON MOSUNNY 83 52 34 W10G29 29.90F WORCESTER SUNNY 77 50 38 W14 29.94F NANTUCKET SUNNY 74 60 61 SW10 29.96S PROVIDENCE MOSUNNY 80 63 55 SE14 29.93F HARTFORD PTSUNNY 84 55 36 S12 29.92F ALBANY PTSUNNY 78 53 41 W10 29.92F NEW YORK CITY PTSUNNY 84 55 36 SW12G20 29.93F $$ ANZ081-ANZ082-ANZ150-NHZ014-MEZ023>029-251900- COASTAL MARINE OBSERVATIONS STATION/POSITION TIME TEMP WIND PRES WAVE AIR SEA DIR/SP/G HT/PER (UTC) (F) (DEG/KT/KT) (MB) (FT/S) MATINICUS ROCK 1700 59 230/ 18/ 18 1011.8F ISLE OF SHOALS 1700 72 200/ 9/ 10 1012.3F JEFFREYS LEDGE 1706 62 N/A 2/ 9 CASHES LEDGE BUO 1650 65 61 1012.9 3/10 GEORGES BANK BUO 1650 58 56 1014.6 6/ 9 $$ .............KEY.............. WCI - WIND CHILL TC - TEMPERATURE IN CELSIUS VSB - VISIBILITY IN MILES HX - HEAT INDEX FAIR- INDICATES FEW OR NO CLOUDS BELOW 12,000 FT, WITH NO SIGNIFICANT WEATHER AND/OR OBSTRUCTIONS TO VISIBILITY.

USA.gov is the U.S. government's official web portal to all federal, state and local government web resources and services.